H1 CPF 2 COD 2023 8 12 1 224 1 glonass143 NONE
H2 2007501 9143 46805 2023 8 11 23 59 42 2023 8 16 23 59 42 900 1 1 0 0 0 1
H5 1.4700
H9
10 0 60170  75582.000000  0   15553034.871 -20172827.392  -1515623.844
10 0 60170  76482.000000  0   15431211.040 -20254429.549   1694087.833
10 0 60170  77382.000000  0   15087411.248 -19999078.555   4870932.528
10 0 60170  78282.000000  0   14572626.901 -19384891.818   7953292.765
10 0 60170  79182.000000  0   13942486.351 -18402410.121  10881406.784
10 0 60170  80082.000000  0   13254740.075 -17055179.547  13598522.140
10 0 60170  80982.000000  0   12566673.443 -15359802.665  16051989.296
10 0 60170  81882.000000  0   11932556.021 -13345456.494  18194274.567
10 0 60170  82782.000000  0   11401234.483 -11052896.858  19983873.512
10 0 60170  83682.000000  0   11013969.932  -8532989.897  21386107.919
10 0 60170  84582.000000  0   10802610.062  -5844830.901  22373791.800
10 0 60170  85482.000000  0   10788172.516  -3053527.486  22927754.279
10 0 60170  86382.000000  0   10979898.691   -227737.812  23037209.850
10 0 60171    882.000000  0   11374817.710   2562935.468  22699969.177
10 0 60171   1782.000000  0   11957839.233   5250588.920  21922486.349
10 0 60171   2682.000000  0   12702371.828   7771591.451  20719741.356
10 0 60171   3582.000000  0   13571441.902  10068981.307  19114959.372
10 0 60171   4482.000000  0   14519267.261  12094588.440  17139171.373
10 0 60171   5382.000000  0   15493220.314  13810794.722  14830623.479
10 0 60171   6282.000000  0   16436099.367  15191859.234  12234045.338
10 0 60171   7182.000000  0   17288613.185  16224753.592   9399790.647
10 0 60171   8082.000000  0   17991974.555  16909472.532   6382865.637
10 0 60171   8982.000000  0   18490493.493  17258806.796   3241863.797
10 0 60171   9882.000000  0   18734060.213  17297587.943     37827.302
10 0 60171  10782.000000  0   18680412.164  17061437.021  -3166942.566
10 0 60171  11682.000000  0   18297088.181  16595070.170  -6310102.413
10 0 60171  12582.000000  0   17562985.798  15950233.134  -9330486.711
10 0 60171  13482.000000  0   16469454.400  15183352.620 -12169306.122
10 0 60171  14382.000000  0   15020876.572  14353004.569 -14771299.889
10 0 60171  15282.000000  0   13234711.680  13517307.242 -17085818.952
10 0 60171  16182.000000  0   11140998.595  12731350.212 -19067817.963
10 0 60171  17082.000000  0    8781337.436  12044768.699 -20678736.364
10 0 60171  17982.000000  0    6207392.221  11499566.324 -21887251.096
10 0 60171  18882.000000  0    3478976.579  11128278.626 -22669886.250
10 0 60171  19782.000000  0     661802.110  10952554.992 -23011467.982
10 0 60171  20682.000000  0   -2175016.929  10982218.739 -22905416.165
10 0 60171  21582.000000  0   -4961598.862  11214844.702 -22353867.518
10 0 60171  22482.000000  0   -7629960.336  11635871.693 -21367628.280
10 0 60171  23382.000000  0  -10116602.042  12219244.560 -19965957.763
10 0 60171  24282.000000  0  -12364907.392  12928558.220 -18176187.380
10 0 60171  25182.000000  0  -14327255.116  13718654.847 -16033182.888
10 0 60171  26082.000000  0  -15966758.794  14537606.372 -13578660.557
10 0 60171  26982.000000  0  -17258562.043  15328998.188 -10860370.844
10 0 60171  27882.000000  0  -18190636.760  16034417.355  -7931165.666
10 0 60171  28782.000000  0  -18764052.637  16596039.997  -4847967.678
10 0 60171  29682.000000  0  -18992708.373  16959208.485  -1670661.885
10 0 60171  30582.000000  0  -18902537.550  17074889.503   1539068.613
10 0 60171  31482.000000  0  -18530224.102  16901909.233   4718939.860
10 0 60171  32382.000000  0  -17921482.773  16408871.352   7807273.848
10 0 60171  33282.000000  0  -17128978.010  15575676.989  10744191.429
10 0 60171  34182.000000  0  -16209969.637  14394582.581  13472768.312
10 0 60171  35082.000000  0  -15223784.794  12870750.946  15940132.089
10 0 60171  35982.000000  0  -14229222.539  11022272.075  18098479.540
10 0 60171  36882.000000  0  -13281999.980   8879652.165  19905995.251
10 0 60171  37782.000000  0  -12432346.735   6484791.411  21327654.562
10 0 60171  38682.000000  0  -11722848.068   3889492.089  22335896.179
10 0 60171  39582.000000  0  -11186626.544   1153557.751  22911152.180
10 0 60171  40482.000000  0  -10845937.844  -1657438.954  23042225.803
10 0 60171  41382.000000  0  -10711239.224  -4474628.701  22726510.027
10 0 60171  42282.000000  0  -10780769.511  -7228457.182  21970042.746
10 0 60171  43182.000000  0  -11040658.398  -9851329.233  20787397.154
10 0 60171  44082.000000  0  -11465560.877 -12280177.021  19201408.803
10 0 60171  44982.000000  0  -12019790.838 -14458846.778  17242743.711
10 0 60171  45882.000000  0  -12658906.984 -16340205.660  14949314.787
10 0 60171  46782.000000  0  -13331685.152 -17887881.578  12365556.742
10 0 60171  47682.000000  0  -13982394.645 -19077563.662   9541572.460
10 0 60171  48582.000000  0  -14553283.050 -19897809.098   6532166.516
10 0 60171  49482.000000  0  -14987164.738 -20350322.449   3395784.006
10 0 60171  50382.000000  0  -15230003.407 -20449695.645    193375.055
10 0 60171  51282.000000  0  -15233378.798 -20222619.512  -3012792.797
10 0 60171  52182.000000  0  -14956732.179 -19706600.109  -6160350.788
10 0 60171  53082.000000  0  -14369294.310 -18948234.256  -9188049.291
10 0 60171  53982.000000  0  -13451612.815 -18001117.443 -12036957.718
10 0 60171  54882.000000  0  -12196612.832 -16923473.088 -14651619.625
10 0 60171  55782.000000  0  -10610144.595 -15775603.953 -16981139.649
10 0 60171  56682.000000  0   -8710993.399 -14617274.102 -18980180.359
10 0 60171  57582.000000  0   -6530350.252 -13505132.612 -20609849.082
10 0 60171  58482.000000  0   -4110764.378 -12490288.261 -21838457.160
10 0 60171  59382.000000  0   -1504620.650 -11616137.833 -22642136.810
10 0 60171  60282.000000  0    1227795.001 -10916539.601 -23005303.775
10 0 60171  61182.000000  0    4020561.831 -10414408.754 -22920957.062
10 0 60171  62082.000000  0    6804628.064 -10120793.448 -22390810.364
10 0 60171  62982.000000  0    9510448.172 -10034469.701 -21425253.051
10 0 60171  63882.000000  0   12070644.219 -10142071.364 -20043141.893
10 0 60171  64782.000000  0   14422580.909 -10418748.769 -18271427.954
10 0 60171  65682.000000  0   16510747.698 -10829327.345 -16144626.239
10 0 60171  66582.000000  0   18288849.504 -11329916.447 -13704138.662
10 0 60171  67482.000000  0   19721519.790 -11869899.710 -10997443.788
10 0 60171  68382.000000  0   20785585.678 -12394222.185  -8077169.332
10 0 60171  69282.000000  0   21470833.546 -12845877.113  -5000065.728
10 0 60171  70182.000000  0   21780244.529 -13168486.830  -1825901.003
10 0 60171  71082.000000  0   21729691.563 -13308868.459   1383701.288
10 0 60171  71982.000000  0   21347112.164 -13219475.791   4566458.236
10 0 60171  72882.000000  0   20671193.032 -12860614.130   7660634.471
10 0 60171  73782.000000  0   19749622.881 -12202334.536  10606236.287
10 0 60171  74682.000000  0   18636987.783 -11225927.525  13346169.973
10 0 60171  75582.000000  0   17392397.966  -9924953.106  15827342.209
10 0 60171  76482.000000  0   16076945.921  -8305763.535  18001681.734
10 0 60171  77382.000000  0   14751102.348  -6387496.245  19827063.187
10 0 60171  78282.000000  0   13472158.682  -4201536.432  21268116.058
10 0 60171  79182.000000  0   12291822.742  -1790470.644  22296903.929
10 0 60171  80082.000000  0   11254067.363    793426.329  22893461.657
10 0 60171  80982.000000  0   10393321.285   3490109.838  23046180.707
10 0 60171  81882.000000  0    9733077.272   6234010.919  22752035.555
10 0 60171  82782.000000  0    9284975.162   8956517.452  22016646.819
10 0 60171  83682.000000  0    9048397.939  11588589.562  20854179.581
10 0 60171  84582.000000  0    9010597.696  14063402.131  19287078.265
10 0 60171  85482.000000  0    9147346.428  16318905.886  17345642.261
10 0 60171  86382.000000  0    9424084.702  18300201.464  15067449.466
10 0 60172    882.000000  0    9797520.435  19961628.187  12496637.729
10 0 60172   1782.000000  0   10217610.906  21268480.683   9683057.088
10 0 60172   2682.000000  0   10629844.805  22198281.604   6681308.327
10 0 60172   3582.000000  0   10977728.055  22741556.951   3549685.921
10 0 60172   4482.000000  0   11205368.142  22902081.197    349045.652
10 0 60172   5382.000000  0   11260047.039  22696581.596  -2858380.999
10 0 60172   6282.000000  0   11094672.931  22153913.933  -6010202.184
10 0 60172   7182.000000  0   10670005.707  21313744.398  -9045086.377
10 0 60172   8082.000000  0    9956560.575  20224793.321 -11903963.788
10 0 60172   8982.000000  0    8936107.702  18942715.200 -14531184.160
10 0 60172   9882.000000  0    7602702.872  17527704.958 -16875607.506
10 0 60172  10782.000000  0    5963204.100  16041931.975 -18891605.794
10 0 60172  11682.000000  0    4037251.002  14546910.676 -20539955.539
10 0 60172  12582.000000  0    1856706.529  13100918.923 -21788603.608
10 0 60172  13482.000000  0    -535416.543  11756573.225 -22613291.298
10 0 60172  14382.000000  0   -3086500.213  10558662.856 -22998024.685
10 0 60172  15282.000000  0   -5736272.974   9542333.692 -22935382.417
10 0 60172  16182.000000  0   -8419087.635   8731697.620 -22426655.368
10 0 60172  17082.000000  0  -11066430.596   8138925.107 -21481815.887
10 0 60172  17982.000000  0  -13609558.317   7763858.084 -20119317.663
10 0 60172  18882.000000  0  -15982151.491   7594158.174 -18365730.486
10 0 60172  19782.000000  0  -18122876.750   7605982.785 -16255217.319
10 0 60172  20682.000000  0  -19977749.652   7765159.289 -13828864.134
10 0 60172  21582.000000  0  -21502201.063   8028806.584 -11133875.797
10 0 60172  22482.000000  0  -22662761.535   8347334.525  -8222653.859
10 0 60172  23382.000000  0  -23438294.257   8666735.891  -5151774.479
10 0 60172  24282.000000  0  -23820726.157   8931073.272  -1980886.593
10 0 60172  25182.000000  0  -23815247.780   9085055.229   1228447.956
10 0 60172  26082.000000  0  -23439974.808   9076592.413   4413949.531
99